Regional Weather Roundup
Issued by NWS

Home | Current Version | Previous Version | Text Only | Print | Product List | Glossary On
Versions: 1 2 3 4 5 6 7 8 9 10 11 12 13 14 15 16 17 18 19 20 21 22 23 24 25 26 27 28 29 30 31 32 33 34 35 36 37 38 39 40 41 42 43 44 45 46 47 48 49 50
000
ASUS43 KTOP 301608
RWRKS

WEATHER ROUNDUP FOR KANSAS
NATIONAL WEATHER SERVICE GOODLAND KS
1100 AM CDT SAT MAY 30 2015

NOTE:  "FAIR" INDICATES FEW OR NO CLOUDS BELOW 12,000 FEET WITH NO
SIGNIFICANT WEATHER AND/OR OBSTRUCTIONS TO VISIBILITY.

KSZ001>006-013>018-027>032-041>047-301700-
NORTHWEST KANSAS

CITY           SKY/WX    TMP DP  RH WIND       PRES   REMARKS
GOODLAND       CLOUDY    51  43  74 N12       30.32R
HAYS           SUNNY     57  39  51 N20       30.25F
HILL CITY      SUNNY     56  41  57 N16G24    30.28F
RUSSELL        SUNNY     58  46  64 N17       30.22F
$$

KSZ061>065-074>080-084>089-301700-
SOUTHWEST KANSAS

CITY           SKY/WX    TMP DP  RH WIND       PRES   REMARKS
DODGE CITY     SUNNY     58  42  55 N21G29    30.26S
ELKHART          N/A     55  45  69 N8          N/A
GARDEN CITY    SUNNY     56  44  64 N15       30.28R
GREAT BEND     MOSUNNY   57  45  62 N15G22    30.23S
LIBERAL        CLOUDY    54  46  76 N15       30.31S
PRATT          SUNNY     61  45  55 N17G24    30.23R
$$

KSZ066>073-081>083-090>101-301700-
SOUTHEAST KANSAS

CITY           SKY/WX    TMP DP  RH WIND       PRES   REMARKS
CHANUTE        CLOUDY    59  55  87 N15       30.11R
COFFEYVILLE    CLOUDY    61  57  87 NW14      30.12R
HUTCHINSON     CLOUDY    59  47  64 N17       30.20R
MEDICINE LODGE   N/A     62  48  60 N17G23    30.20R
NEWTON         CLOUDY    54  45  71 N16G22    30.20R
PARSONS        CLOUDY    60  56  86 N12G21    30.13R
WICHITA INTL   CLOUDY    57  47  69 N15G24    30.18R
WICHITA JABRA  CLOUDY    56  48  74 N15       30.18R
WICHITA MCCONL CLOUDY    56  48  76 N15       30.18R
WINFIELD       CLOUDY    59  51  75 NW15      30.19R
$$

KSZ007>012-019>026-033>040-048>060-102>105-301700-
NORTHEAST KANSAS

CITY           SKY/WX    TMP DP  RH WIND       PRES   REMARKS
CONCORDIA      CLOUDY    54  47  77 N16G22    30.21S
EMPORIA        CLOUDY    56  51  84 NW15      30.14R
LAWRENCE       CLOUDY    57  52  83 NW13      30.13R
MANHATTAN      CLOUDY    56  49  77 N8        30.17S
MARYSVILLE     CLOUDY    54  48  82 N14       30.18R
OLATHE IND     CLOUDY    56  53  90 N14       30.11R
OLATHE EXE     CLOUDY    57  53  86 N10       30.09R
SALINA         CLOUDY    56  47  71 N16       30.21R
TOPEKA BILLARD CLOUDY    57  52  83 N13       30.14S
TOPEKA FORBES  CLOUDY    56  52  86 NW10      30.13R
$$



USA.gov is the U.S. government's official web portal to all federal, state and local government web resources and services.